Regional Weather Roundup
Issued by NWS

Home | Current Version | Previous Version | Graphics & Text | Print | Product List | Glossary On
Versions: 1 2 3 4 5 6 7 8 9 10 11 12 13 14 15 16 17 18 19 20 21 22 23 24 25 26 27 28 29 30 31 32 33 34 35 36 37 38 39 40 41 42 43 44 45 46 47 48 49 50
000
ASUS43 KFSD 251710
RWRSD

WEATHER ROUNDUP FOR SOUTH DAKOTA
NATIONAL WEATHER SERVICE SIOUX FALLS SD
1200 PM CDT THU MAY 25 2017

NOTE: "FAIR" INDICATES FEW OR NO CLOUDS BELOW 12,000 FEET WITH NO
SIGNIFICANT WEATHER AND/OR OBSTRUCTIONS TO VISIBILITY.


SDZ001>005-009-010-012>017-251800-
NORTHWEST AND NORTH CENTRAL SOUTH DAKOTA

CITY           SKY/WX    TMP DP  RH WIND       PRES   REMARKS
BUFFALO          N/A     62  33  33 W24G32    29.44R
FAITH            N/A     62  32  32 NW20      29.48R
MOBRIDGE       PTSUNNY   64  49  57 NW14      29.42R
$$

SDZ012>016-024>037-041>051-057-063-072>074-251800-
SOUTHWEST AND SOUTH CENTRAL SOUTH DAKOTA

CITY           SKY/WX    TMP DP  RH WIND       PRES   REMARKS
RAPID CTY ARPT CLOUDY    65  27  23 N14       29.52F
PIERRE         CLOUDY    62  46  55 NW14      29.46R
CUSTER         CLOUDY    58  35  42 VRB7      29.58S
PHILIP         CLOUDY    69  38  32 NW14      29.49R
PINE RIDGE     CLOUDY    63  40  42 MISG      29.56R
WINNER         FAIR      64  50  60 NW14      29.47R
$$

SDZ004>011-016>023-039-040-251800-
NORTHEAST SOUTH DAKOTA

CITY           SKY/WX    TMP DP  RH WIND       PRES   REMARKS
ABERDEEN       PTSUNNY   68  45  43 S18G26    29.44R
WATERTOWN      SUNNY     65  48  54 S22G40    29.49R
BROOKINGS      SUNNY     65  47  52 S28G37    29.51F
SISSETON         N/A     69  49  48 S30G40    29.48F
$$

SDZ017-020-022-023-036>040-048>070-251800-
SOUTHEAST SOUTH DAKOTA

CITY           SKY/WX    TMP DP  RH WIND       PRES   REMARKS
SIOUX FALLS    MOSUNNY   67  51  56 S25G32    29.53F
HURON          CLOUDY    69  50  50 S18G32    29.45R
CHAMBERLAIN    CLOUDY    68  52  56 SW10      29.45S
MITCHELL       SUNNY     72  49  44 S24G33    29.46S
YANKTON        SUNNY     69  47  45 S21G30    29.52F
$$

ABBREVIATIONS USED IN REMARKS
   TC - TEMPERATURE IN CELSIUS
  WCI - WIND CHILL INDEX
   HX - HEAT INDEX
  VSB - VISIBILITY





USA.gov is the U.S. government's official web portal to all federal, state and local government web resources and services.